QPF
0.00 0.00 0.05 0.09 0.06 0.02 0.03 0.03 0.01 0.00 0.01 0.05 0.01 0.00 0.00 0.00 0.00 0.00 0.00 0.00 0.00 0.00 0.00 0.00 0.00 0.00 0.00 0.00 0.00 0.00 0.00 0.00 0.00 0.00 0.00 0.00 0.00 0.00 0.00 0.00 0.00 0.00 0.00 0.00
0.00 0.00 0.03 0.09 0.08 0.01 0.02 0.03 0.01 0.03 0.01 0.01 0.00 0.00 0.00 0.00 0.00 0.00 0.00 0.00 0.00 0.00 0.00 0.00 0.00 0.00 0.00 0.00 0.00 0.00 0.00 0.00 0.00 0.00 0.00 0.00 0.00 0.00 0.00 0.00 0.00 0.00 0.00 0.00
0.01 0.02 0.04 0.05 0.09 0.02 0.03 0.04 0.02 0.07 0.05 0.00 0.00 0.00 0.00 0.00 0.00 0.00 0.00 0.00 0.00 0.00 0.00 0.00 0.00 0.00 0.00 0.00 0.00 0.00 0.00 0.00 0.00 0.00 0.00 0.00 0.00 0.00 0.00 0.00 0.00 0.00 0.00 0.00
0.02 0.03 0.05 0.04 0.06 0.02 0.07 0.06 0.01 0.01 0.02 0.00 0.00 0.00 0.00 0.00 0.00 0.00 0.00 0.00 0.00 0.00 0.00 0.00 0.00 0.00 0.00 0.00 0.00 0.00 0.00 0.00 0.00 0.00 0.00 0.00 0.00 0.00 0.00 0.00 0.00 0.00 0.00 0.00
0.06 0.04 0.04 0.04 0.03 0.03 0.16 0.07 0.01 0.00 0.00 0.00 0.00 0.00 0.00 0.00 0.00 0.00 0.00 0.00 0.00 0.00 0.00 0.00 0.00 0.00 0.00 0.00 0.00 0.00 0.00 0.00 0.00 0.00 0.00 0.00 0.00 0.00 0.00 0.00 0.00 0.00 0.00 0.00
0.06 0.06 0.04 0.04 0.02 0.06 0.25 0.12 0.00 0.01 0.00 0.00 0.00 0.00 0.00 0.00 0.00 0.00 0.00 0.00 0.00 0.00 0.00 0.00 0.00 0.00 0.00 0.00 0.00 0.00 0.00 0.00 0.00 0.00 0.00 0.00 0.00 0.00 0.00 0.00 0.00 0.00 0.00 0.00
0.06 0.05 0.03 0.04 0.02 0.02 0.12 0.11 0.00 0.03 0.01 0.00 0.00 0.00 0.00 0.00 0.00 0.00 0.00 0.00 0.00 0.00 0.00 0.00 0.00 0.00 0.00 0.00 0.00 0.00 0.00 0.00 0.00 0.00 0.00 0.00 0.00 0.00 0.00 0.00 0.00 0.00 0.00 0.00
0.05 0.04 0.03 0.02 0.01 0.00 0.03 0.04 0.01 0.06 0.03 0.00 0.00 0.00 0.00 0.00 0.00 0.00 0.00 0.00 0.00 0.00 0.00 0.00 0.00 0.00 0.00 0.00 0.00 0.00 0.00 0.00 0.00 0.00 0.00 0.00 0.00 0.00 0.00 0.00 0.00 0.00 0.00 0.00
0.03 0.04 0.03 0.01 0.00 0.00 0.01 0.05 0.02 0.04 0.11 0.01 0.00 0.00 0.00 0.00 0.00 0.00 0.00 0.00 0.00 0.00 0.00 0.00 0.01 0.01 0.00 0.00 0.00 0.00 0.00 0.00 0.00 0.00 0.00 0.00 0.00 0.00 0.00 0.00 0.00 0.00 0.00 0.00
0.02 0.03 0.02 0.00 0.00 0.00 0.01 0.06 0.05 0.03 0.10 0.03 0.01 0.01 0.00 0.00 0.00 0.00 0.00 0.00 0.00 0.00 0.00 0.00 0.01 0.01 0.01 0.00 0.00 0.00 0.00 0.00 0.00 0.00 0.00 0.00 0.00 0.00 0.00 0.00 0.00 0.00 0.00 0.00
0.03 0.02 0.00 0.00 0.00 0.00 0.02 0.03 0.10 0.06 0.06 0.02 0.02 0.03 0.02 0.00 0.00 0.00 0.00 0.00 0.00 0.00 0.00 0.00 0.02 0.01 0.00 0.00 0.00 0.00 0.00 0.00 0.00 0.00 0.00 0.00 0.00 0.00 0.00 0.00 0.00 0.00 0.00 0.00
0.02 0.02 0.01 0.01 0.01 0.02 0.03 0.03 0.14 0.14 0.10 0.03 0.01 0.01 0.01 0.00 0.00 0.00 0.00 0.00 0.00 0.00 0.00 0.00 0.02 0.01 0.00 0.00 0.00 0.00 0.00 0.00 0.00 0.00 0.00 0.00 0.00 0.00 0.00 0.00 0.00 0.00 0.00 0.00
0.02 0.01 0.02 0.02 0.02 0.03 0.01 0.02 0.11 0.23 0.13 0.02 0.00 0.01 0.02 0.00 0.00 0.00 0.00 0.00 0.00 0.00 0.00 0.01 0.02 0.02 0.00 0.00 0.00 0.00 0.00 0.00 0.00 0.00 0.00 0.00 0.00 0.00 0.00 0.00 0.00 0.00 0.00 0.00
0.00 0.01 0.02 0.03 0.03 0.03 0.02 0.01 0.14 0.18 0.11 0.03 0.01 0.00 0.01 0.01 0.01 0.00 0.00 0.00 0.00 0.03 0.01 0.02 0.03 0.02 0.01 0.00 0.00 0.00 0.00 0.00 0.00 0.00 0.00 0.00 0.00 0.00 0.00 0.00 0.00 0.00 0.00 0.00
0.00 0.02 0.03 0.03 0.04 0.03 0.02 0.03 0.14 0.14 0.06 0.05 0.04 0.00 0.00 0.03 0.04 0.03 0.01 0.00 0.00 0.01 0.04 0.02 0.01 0.01 0.01 0.00 0.00 0.00 0.00 0.00 0.00 0.00 0.00 0.00 0.00 0.00 0.00 0.00 0.00 0.00 0.00 0.00
0.02 0.02 0.02 0.02 0.03 0.04 0.05 0.12 0.15 0.08 0.05 0.08 0.05 0.03 0.00 0.02 0.08 0.09 0.04 0.01 0.00 0.01 0.03 0.02 0.01 0.00 0.02 0.01 0.00 0.00 0.00 0.00 0.00 0.00 0.00 0.00 0.00 0.00 0.00 0.00 0.00 0.00 0.00 0.00
0.05 0.06 0.03 0.05 0.06 0.03 0.04 0.10 0.06 0.05 0.09 0.09 0.06 0.04 0.01 0.10 0.11 0.10 0.05 0.01 0.00 0.02 0.02 0.02 0.01 0.00 0.01 0.00 0.00 0.00 0.00 0.00 0.00 0.00 0.00 0.00 0.00 0.00 0.00 0.00 0.00 0.00 0.00 0.00
0.15 0.13 0.07 0.09 0.07 0.03 0.01 0.03 0.06 0.01 0.08 0.15 0.11 0.06 0.03 0.06 0.35 0.09 0.06 0.03 0.01 0.01 0.01 0.01 0.00 0.00 0.00 0.00 0.00 0.00 0.00 0.00 0.00 0.00 0.00 0.00 0.00 0.00 0.00 0.00 0.00 0.00 0.00 0.00
0.13 0.13 0.15 0.15 0.06 0.01 0.01 0.08 0.07 0.04 0.04 0.10 0.07 0.03 0.01 0.00 0.12 0.07 0.06 0.04 0.04 0.02 0.04 0.02 0.01 0.01 0.01 0.00 0.00 0.00 0.00 0.00 0.00 0.00 0.00 0.00 0.00 0.00 0.00 0.00 0.00 0.00 0.00 0.00
0.06 0.10 0.06 0.02 0.00 0.02 0.18 0.21 0.16 0.12 0.06 0.04 0.07 0.03 0.01 0.00 0.02 0.07 0.18 0.09 0.04 0.01 0.10 0.17 0.11 0.05 0.07 0.02 0.00 0.00 0.00 0.00 0.00 0.00 0.00 0.00 0.00 0.00 0.00 0.00 0.01 0.01 0.01 0.00
0.00 0.00 0.05 0.06 0.02 0.03 0.10 0.11 0.13 0.14 0.06 0.02 0.01 0.00 0.01 0.00 0.19 0.31 0.20 0.20 0.25 0.14 0.10 0.16 0.22 0.17 0.08 0.04 0.02 0.03 0.03 0.01 0.00 0.00 0.00 0.00 0.00 0.00 0.01 0.02 0.04 0.04 0.02 0.00
0.09 0.21 0.22 0.09 0.01 0.01 0.03 0.05 0.10 0.09 0.04 0.02 0.02 0.00 0.00 0.02 0.11 0.41 0.33 0.17 0.17 0.14 0.08 0.07 0.05 0.04 0.07 0.09 0.05 0.01 0.01 0.00 0.00 0.00 0.00 0.00 0.01 0.01 0.02 0.04 0.04 0.01 0.00 0.00
0.38 0.10 0.09 0.02 0.02 0.03 0.09 0.07 0.05 0.06 0.02 0.02 0.03 0.01 0.01 0.02 0.06 0.15 0.23 0.18 0.08 0.05 0.04 0.04 0.01 0.01 0.02 0.01 0.00 0.00 0.00 0.00 0.00 0.00 0.01 0.02 0.04 0.06 0.06 0.05 0.02 0.00 0.00 0.00
0.13 0.13 0.11 0.12 0.12 0.09 0.07 0.03 0.02 0.03 0.02 0.02 0.02 0.01 0.00 0.00 0.01 0.01 0.04 0.06 0.04 0.01 0.00 0.00 0.00 0.00 0.00 0.00 0.00 0.00 0.00 0.01 0.04 0.05 0.05 0.04 0.02 0.01 0.00 0.00 0.00 0.00 0.00 0.00
0.28 0.18 0.13 0.13 0.12 0.09 0.07 0.03 0.01 0.01 0.01 0.01 0.01 0.01 0.01 0.01 0.00 0.00 0.00 0.01 0.01 0.02 0.02 0.02 0.01 0.01 0.01 0.01 0.02 0.01 0.02 0.02 0.02 0.01 0.01 0.01 0.00 0.00 0.00 0.00 0.00 0.00 0.00 0.00
0.04 0.12 0.16 0.11 0.07 0.04 0.02 0.02 0.02 0.02 0.01 0.00 0.00 0.00 0.01 0.04 0.02 0.01 0.02 0.01 0.02 0.03 0.03 0.03 0.01 0.01 0.01 0.01 0.02 0.02 0.02 0.02 0.02 0.03 0.02 0.01 0.00 0.00 0.00 0.00 0.00 0.00 0.00 0.00
0.01 0.08 0.10 0.05 0.03 0.03 0.04 0.03 0.03 0.02 0.00 0.00 0.00 0.01 0.02 0.02 0.01 0.01 0.02 0.03 0.05 0.06 0.05 0.04 0.03 0.04 0.03 0.04 0.06 0.06 0.06 0.04 0.03 0.03 0.01 0.01 0.01 0.00 0.00 0.00 0.00 0.00 0.00 0.00
MSLP
1004.10 1005.67 1006.99 1008.17 1009.14 1010.18 1012.22 1012.61 1012.38 1011.31 1012.14 1013.07 1012.34 1011.13 1011.11 1010.35 1009.59 1008.99 1008.91 1008.55 1008.22 1007.73 1007.45 1007.58 1008.01 1008.06 1007.64 1007.46 1008.21 1009.66 1009.86 1010.25 1011.00 1010.46 1010.08 1009.81 1010.35 1011.15 1012.18 1013.96 1015.39 1015.62 1014.99 1012.53
1002.29 1004.14 1005.61 1006.83 1008.25 1008.75 1011.01 1011.18 1010.87 1010.96 1010.70 1010.75 1010.12 1010.53 1010.47 1010.45 1009.47 1009.08 1009.04 1008.70 1008.08 1007.70 1007.43 1007.72 1007.44 1007.40 1007.00 1007.37 1008.05 1008.68 1009.66 1010.40 1011.12 1010.82 1010.72 1010.32 1010.50 1011.08 1011.91 1012.98 1014.13 1014.97 1014.83 1012.34
1000.49 1002.57 1004.20 1005.52 1007.26 1008.00 1009.38 1010.37 1009.97 1010.00 1010.20 1008.46 1009.25 1009.70 1009.56 1009.80 1009.23 1009.20 1008.92 1008.72 1008.32 1008.06 1007.59 1007.28 1007.19 1007.23 1007.22 1007.41 1007.75 1008.08 1008.76 1009.92 1010.54 1010.61 1010.27 1010.06 1010.49 1010.69 1011.52 1012.25 1013.82 1013.92 1013.44 1012.07
998.85 1001.01 1002.84 1004.48 1006.17 1007.18 1008.41 1008.82 1007.72 1006.70 1007.32 1007.92 1007.95 1008.63 1008.58 1009.11 1008.79 1008.84 1008.79 1008.76 1008.58 1008.15 1008.10 1007.52 1007.36 1007.20 1007.41 1007.78 1008.02 1008.51 1008.87 1010.00 1010.37 1010.16 1009.95 1010.02 1010.10 1010.40 1011.11 1011.79 1011.87 1012.37 1011.99 1011.91
997.45 999.78 1001.51 1003.22 1004.99 1006.62 1007.92 1007.14 1006.89 1006.51 1006.17 1007.34 1008.32 1008.06 1007.57 1007.69 1008.31 1008.11 1008.32 1008.40 1008.18 1008.22 1008.16 1007.46 1007.47 1007.66 1007.60 1007.55 1008.38 1008.75 1009.36 1010.12 1010.53 1010.94 1010.67 1010.45 1010.38 1010.27 1010.64 1010.94 1011.22 1011.43 1011.30 1011.20
996.45 998.57 1000.61 1002.24 1003.85 1005.95 1006.09 1006.55 1006.25 1006.00 1005.93 1006.57 1007.44 1005.48 1006.43 1007.03 1008.09 1007.81 1007.63 1007.70 1008.15 1007.98 1007.42 1007.20 1007.27 1007.53 1007.61 1007.77 1008.41 1008.50 1009.52 1010.47 1011.55 1012.20 1011.84 1011.34 1011.15 1010.15 1009.98 1010.04 1010.00 1010.18 1010.58 1010.23
995.66 997.71 999.50 1001.26 1002.86 1003.98 1004.55 1005.88 1005.84 1005.71 1005.66 1005.65 1004.28 1005.89 1006.52 1006.58 1006.52 1007.00 1007.24 1007.45 1007.77 1007.71 1007.38 1007.36 1007.56 1007.75 1007.72 1007.70 1008.10 1008.94 1009.58 1010.76 1012.02 1013.26 1013.10 1012.08 1009.85 1009.27 1009.24 1009.53 1009.53 1009.69 1009.85 1009.89
995.19 997.25 998.98 1000.73 1002.53 1003.74 1004.82 1005.80 1005.74 1005.50 1005.45 1005.06 1005.04 1005.42 1006.00 1006.87 1006.93 1006.97 1007.02 1007.01 1007.31 1007.60 1007.97 1008.46 1008.50 1008.93 1008.68 1008.78 1008.64 1009.08 1009.37 1010.77 1013.03 1013.79 1013.76 1011.86 1010.16 1009.53 1009.26 1009.38 1009.20 1009.26 1009.83 1010.45
995.23 997.02 998.82 1000.81 1002.28 1003.58 1005.00 1005.41 1006.10 1006.30 1005.71 1004.47 1004.85 1005.00 1005.28 1005.85 1006.35 1007.29 1007.02 1007.50 1007.40 1008.14 1008.90 1009.87 1009.90 1009.63 1009.10 1009.44 1009.32 1009.50 1010.04 1010.61 1012.12 1013.99 1013.68 1012.06 1009.83 1008.41 1008.23 1008.65 1009.02 1009.06 1009.63 1010.75
995.36 997.15 999.01 1000.58 1001.96 1003.32 1004.61 1005.25 1006.48 1007.33 1006.11 1004.78 1004.20 1003.99 1004.48 1005.36 1006.14 1006.55 1007.02 1007.35 1007.91 1008.22 1009.40 1010.12 1010.22 1010.08 1009.42 1009.47 1009.37 1010.00 1011.24 1012.20 1013.21 1013.90 1013.09 1011.10 1008.82 1008.32 1008.54 1009.17 1008.70 1008.44 1009.31 1010.47
995.78 997.49 999.06 1000.49 1001.77 1003.04 1004.45 1005.58 1006.71 1007.63 1006.55 1005.20 1004.53 1004.28 1004.14 1004.73 1005.03 1005.70 1006.51 1007.78 1007.56 1008.60 1009.13 1009.85 1010.02 1010.27 1009.36 1009.34 1008.64 1008.90 1009.94 1011.69 1012.91 1013.07 1012.27 1010.46 1008.17 1008.82 1008.83 1007.94 1007.98 1008.49 1009.41 1010.34
996.48 998.04 999.48 1000.86 1002.09 1003.32 1004.79 1006.03 1006.78 1007.68 1007.86 1006.07 1005.32 1004.87 1004.48 1004.26 1004.27 1005.21 1005.42 1005.35 1005.67 1006.44 1007.59 1008.75 1009.27 1009.90 1010.22 1008.88 1009.00 1008.60 1008.95 1008.70 1009.98 1010.38 1009.31 1008.15 1007.87 1007.71 1007.45 1007.68 1008.26 1008.74 1009.36 1010.44
997.23 998.70 1000.02 1001.16 1002.27 1003.42 1004.50 1005.60 1006.52 1008.17 1008.06 1006.34 1005.46 1004.17 1003.79 1003.73 1004.07 1003.94 1004.54 1004.80 1004.85 1005.32 1005.22 1007.04 1008.27 1008.78 1008.99 1008.63 1008.04 1007.89 1007.93 1007.88 1008.45 1009.19 1008.26 1007.96 1007.97 1008.04 1008.14 1008.04 1008.56 1008.94 1009.47 1010.50
998.08 999.30 1000.49 1001.64 1002.73 1003.84 1004.77 1005.49 1006.29 1007.71 1006.87 1006.63 1004.71 1003.50 1003.37 1002.78 1003.06 1003.49 1003.78 1003.88 1004.34 1004.94 1005.62 1006.48 1007.08 1007.89 1007.66 1007.56 1006.72 1006.93 1006.79 1007.33 1007.94 1008.25 1008.24 1008.35 1008.26 1008.44 1008.66 1009.17 1009.47 1009.94 1010.72 1011.48
998.69 999.82 1000.87 1001.85 1002.79 1003.88 1005.22 1005.86 1006.11 1006.97 1007.15 1005.64 1004.64 1003.63 1002.50 1002.34 1002.64 1002.97 1003.30 1003.86 1004.32 1005.03 1006.19 1006.40 1006.34 1006.45 1007.22 1007.56 1006.99 1006.34 1005.93 1006.05 1006.85 1006.30 1005.70 1006.34 1007.19 1008.20 1009.18 1009.89 1010.64 1011.03 1011.36 1012.86
998.96 1000.06 1001.07 1002.09 1002.95 1004.20 1005.13 1005.86 1006.13 1006.35 1006.18 1006.30 1005.23 1003.95 1002.83 1002.22 1001.96 1002.25 1002.83 1003.29 1004.02 1004.70 1005.12 1005.87 1005.85 1005.49 1005.72 1007.01 1006.47 1004.75 1004.63 1004.77 1004.95 1005.29 1005.72 1006.70 1007.48 1008.63 1009.49 1010.45 1011.39 1012.06 1012.57 1013.38
999.19 1000.28 1001.32 1002.34 1003.33 1004.16 1004.26 1004.62 1004.82 1005.07 1005.40 1005.85 1005.94 1004.52 1002.48 1001.78 1001.91 1002.31 1002.68 1003.10 1003.79 1004.25 1005.07 1005.42 1005.74 1005.82 1005.01 1006.92 1005.90 1005.32 1005.28 1005.64 1005.74 1006.26 1006.80 1008.38 1008.55 1009.49 1010.29 1010.95 1012.02 1012.90 1013.80 1014.54
999.46 1000.62 1001.66 1002.61 1003.66 1004.23 1004.46 1004.26 1004.16 1004.17 1004.98 1005.32 1005.48 1004.11 1002.99 1002.23 1002.41 1002.50 1002.85 1003.34 1003.83 1004.47 1005.16 1005.70 1005.91 1006.30 1006.59 1006.44 1005.74 1005.77 1005.68 1006.00 1006.69 1007.44 1007.11 1007.71 1008.84 1010.08 1011.41 1012.07 1012.62 1013.60 1014.66 1015.50
999.83 1001.13 1001.97 1002.80 1003.56 1003.89 1004.17 1003.80 1004.30 1004.35 1004.89 1004.99 1004.86 1003.92 1003.18 1002.65 1002.02 1001.78 1003.05 1003.40 1004.48 1004.93 1005.27 1005.75 1006.01 1006.48 1005.84 1005.43 1005.61 1005.45 1006.57 1006.30 1006.87 1007.71 1008.55 1009.72 1010.00 1010.90 1012.06 1012.84 1013.70 1014.20 1015.36 1016.18
1000.49 1001.40 1001.37 1002.01 1003.13 1003.42 1003.91 1005.39 1005.29 1005.17 1004.22 1004.36 1004.36 1003.82 1003.23 1003.30 1003.76 1003.82 1003.74 1003.88 1004.58 1005.02 1005.31 1005.29 1006.01 1006.02 1005.75 1006.07 1005.95 1005.52 1007.11 1007.09 1006.27 1007.96 1010.46 1011.12 1011.04 1011.62 1012.71 1013.60 1014.41 1015.05 1016.08 1016.98
1000.06 1000.69 1001.25 1001.66 1001.92 1002.58 1003.84 1004.25 1004.12 1003.80 1003.83 1003.95 1003.90 1003.87 1003.90 1003.77 1003.88 1004.30 1004.79 1004.97 1005.15 1004.78 1004.85 1005.11 1006.01 1006.13 1006.17 1006.62 1007.03 1006.12 1006.77 1007.51 1007.47 1008.02 1009.27 1009.72 1010.39 1011.61 1013.08 1014.44 1015.29 1015.96 1016.53 1017.70
1000.31 1000.19 1000.99 1002.27 1002.68 1003.59 1003.81 1003.44 1003.50 1003.27 1003.68 1003.71 1003.58 1003.31 1003.43 1004.08 1004.08 1004.82 1005.49 1005.53 1005.57 1005.22 1004.63 1005.09 1006.19 1006.62 1006.65 1006.16 1007.57 1007.54 1008.12 1008.43 1008.96 1009.45 1009.88 1010.62 1011.41 1012.62 1013.85 1015.10 1016.10 1016.90 1018.25 1018.60
1000.36 1000.84 1002.10 1002.47 1003.80 1004.09 1004.36 1004.41 1004.33 1004.45 1004.29 1004.04 1003.78 1003.95 1004.13 1004.43 1004.71 1005.47 1005.78 1005.64 1005.83 1005.59 1005.06 1005.93 1007.29 1007.31 1007.29 1007.15 1008.39 1009.20 1009.20 1009.36 1009.89 1010.55 1011.28 1012.08 1013.16 1014.09 1014.79 1015.83 1016.90 1018.21 1019.28 1019.25
1001.54 1001.79 1003.18 1003.90 1004.81 1005.13 1005.21 1005.20 1005.12 1005.02 1004.70 1004.45 1004.28 1004.41 1004.68 1005.30 1005.53 1006.06 1006.19 1006.58 1006.26 1006.74 1007.35 1008.16 1008.77 1008.93 1009.29 1009.43 1009.69 1010.04 1010.58 1010.74 1011.20 1012.09 1012.78 1013.47 1013.93 1015.08 1016.19 1017.04 1017.82 1018.77 1019.43 1019.98
1003.10 1003.57 1005.00 1005.84 1006.03 1005.90 1005.78 1005.64 1005.66 1005.66 1005.27 1005.08 1004.93 1005.04 1005.38 1006.02 1006.59 1006.92 1007.28 1007.71 1008.28 1009.09 1009.89 1010.11 1009.96 1009.95 1010.33 1010.64 1010.97 1011.33 1011.54 1012.01 1012.70 1013.52 1014.26 1015.13 1015.82 1016.58 1017.54 1018.28 1018.81 1019.34 1019.98 1020.99
1004.70 1005.85 1006.47 1006.82 1006.69 1006.77 1006.54 1006.41 1006.20 1005.95 1005.73 1005.50 1005.46 1006.33 1007.01 1007.78 1008.22 1008.96 1009.97 1010.08 1011.29 1011.68 1011.44 1011.21 1011.05 1011.17 1011.39 1011.59 1011.87 1012.17 1012.58 1013.14 1013.98 1014.86 1015.64 1016.34 1017.02 1017.59 1018.61 1019.38 1019.91 1020.55 1021.22 1022.11
1007.25 1008.46 1008.71 1008.47 1008.65 1009.15 1009.04 1008.42 1007.67 1006.74 1006.44 1007.15 1007.67 1009.11 1010.30 1010.32 1011.12 1012.68 1013.36 1014.06 1013.97 1013.64 1012.68 1012.27 1012.15 1012.11 1012.30 1012.65 1012.99 1013.46 1014.01 1014.66 1015.39 1016.14 1016.81 1017.48 1018.21 1018.66 1019.36 1020.17 1021.11 1021.58 1022.38 1022.98
Thickness
5420 5418 5415 5418 5424 5432 5432 5449 5463 5493 5494 5491 5511 5535 5540 5559 5573 5583 5586 5595 5602 5614 5618 5617 5615 5620 5630 5635 5632 5618 5621 5607 5594 5615 5630 5633 5626 5618 5612 5583 5595 5579 5567 5594
5417 5414 5411 5411 5411 5422 5425 5444 5467 5473 5487 5494 5518 5533 5538 5545 5568 5570 5577 5585 5599 5610 5616 5613 5617 5621 5637 5630 5629 5618 5618 5600 5588 5600 5610 5623 5623 5621 5615 5600 5586 5582 5567 5597
5415 5411 5408 5406 5402 5412 5420 5428 5439 5458 5471 5523 5521 5526 5535 5541 5562 5563 5573 5579 5589 5600 5609 5613 5617 5620 5629 5628 5630 5625 5625 5602 5601 5595 5609 5616 5613 5619 5611 5607 5576 5588 5585 5609
5413 5408 5406 5402 5396 5401 5409 5414 5442 5483 5483 5502 5523 5525 5533 5536 5549 5560 5565 5570 5576 5590 5594 5602 5609 5619 5622 5624 5619 5620 5618 5602 5604 5613 5620 5618 5619 5619 5606 5603 5607 5597 5612 5600
5408 5405 5401 5401 5395 5391 5394 5414 5440 5466 5496 5510 5503 5514 5533 5541 5548 5557 5559 5565 5577 5579 5585 5600 5606 5609 5612 5618 5614 5612 5611 5603 5611 5607 5610 5609 5612 5613 5608 5608 5611 5605 5607 5607
5405 5403 5400 5398 5394 5383 5395 5411 5437 5462 5490 5495 5494 5531 5537 5540 5546 5555 5563 5574 5576 5574 5591 5604 5606 5605 5610 5614 5610 5610 5606 5596 5587 5594 5590 5597 5580 5603 5609 5612 5613 5615 5598 5614
5402 5401 5400 5398 5395 5398 5404 5414 5435 5456 5464 5489 5526 5518 5526 5536 5554 5556 5565 5571 5568 5579 5596 5597 5598 5598 5602 5607 5609 5605 5598 5594 5574 5560 5565 5564 5612 5618 5618 5609 5612 5612 5613 5614
5399 5398 5398 5396 5393 5391 5393 5400 5424 5445 5442 5493 5506 5515 5518 5522 5541 5546 5555 5566 5572 5574 5581 5574 5580 5571 5590 5591 5593 5598 5602 5584 5563 5564 5560 5585 5609 5608 5605 5602 5605 5608 5604 5600
5395 5396 5395 5390 5388 5389 5387 5392 5407 5426 5452 5480 5500 5509 5517 5520 5535 5534 5544 5555 5562 5561 5553 5545 5556 5559 5579 5579 5591 5591 5590 5583 5579 5537 5557 5559 5596 5616 5613 5610 5589 5609 5600 5591
5392 5392 5388 5387 5388 5387 5385 5390 5392 5405 5438 5471 5492 5505 5513 5519 5529 5531 5539 5548 5549 5553 5517 5530 5539 5555 5576 5570 5581 5577 5558 5553 5555 5513 5540 5570 5604 5612 5607 5583 5593 5604 5599 5590
5388 5387 5386 5386 5387 5386 5384 5383 5383 5394 5428 5456 5478 5491 5506 5516 5530 5527 5534 5531 5538 5524 5537 5540 5537 5531 5565 5567 5586 5584 5583 5562 5538 5525 5532 5571 5607 5601 5590 5600 5603 5599 5594 5588
5383 5382 5380 5380 5381 5380 5378 5375 5380 5388 5406 5439 5458 5477 5492 5508 5525 5529 5531 5549 5552 5553 5545 5529 5527 5539 5524 5570 5570 5584 5585 5591 5577 5579 5585 5604 5604 5606 5608 5601 5598 5595 5591 5584
5376 5374 5374 5376 5377 5378 5379 5378 5379 5375 5393 5428 5450 5475 5492 5504 5516 5529 5535 5537 5552 5552 5562 5551 5550 5554 5550 5561 5568 5583 5588 5589 5584 5587 5598 5600 5599 5596 5595 5598 5596 5589 5586 5578
5369 5368 5370 5371 5372 5373 5375 5377 5378 5377 5404 5414 5448 5476 5489 5508 5519 5529 5537 5549 5546 5549 5548 5544 5542 5552 5563 5555 5584 5584 5588 5585 5578 5577 5584 5589 5588 5583 5582 5575 5573 5570 5564 5560
5364 5365 5366 5367 5369 5370 5367 5371 5380 5384 5396 5424 5448 5474 5495 5511 5520 5530 5535 5542 5542 5539 5537 5527 5551 5558 5556 5546 5564 5569 5585 5589 5582 5589 5606 5601 5598 5576 5569 5566 5559 5557 5554 5540
5363 5362 5363 5363 5364 5364 5364 5369 5381 5390 5404 5419 5439 5469 5492 5515 5528 5534 5535 5541 5536 5536 5541 5533 5552 5562 5569 5555 5558 5595 5593 5592 5597 5603 5596 5579 5572 5563 5560 5553 5544 5539 5535 5529
5358 5356 5356 5356 5358 5359 5368 5379 5397 5409 5419 5430 5436 5457 5497 5521 5529 5527 5530 5532 5530 5537 5538 5536 5548 5550 5561 5530 5561 5582 5574 5574 5571 5567 5569 5556 5561 5552 5542 5538 5530 5522 5513 5506
5345 5344 5347 5350 5352 5357 5369 5390 5405 5417 5426 5438 5444 5471 5493 5514 5521 5525 5523 5524 5527 5530 5527 5523 5530 5533 5524 5551 5560 5555 5559 5561 5554 5548 5555 5557 5542 5533 5522 5518 5514 5505 5493 5484
5342 5340 5347 5349 5356 5368 5380 5399 5410 5423 5432 5433 5444 5478 5494 5502 5504 5521 5518 5518 5514 5518 5512 5520 5527 5517 5548 5554 5549 5553 5547 5557 5543 5536 5530 5521 5521 5515 5507 5501 5493 5487 5477 5468
5354 5357 5369 5371 5370 5382 5392 5397 5413 5425 5444 5453 5460 5480 5499 5496 5484 5499 5509 5508 5510 5518 5515 5518 5513 5525 5526 5525 5533 5540 5528 5527 5537 5523 5501 5497 5501 5499 5490 5484 5477 5471 5461 5449
5379 5381 5382 5389 5398 5405 5404 5413 5428 5443 5453 5458 5472 5479 5488 5491 5495 5496 5489 5498 5498 5521 5518 5517 5511 5520 5518 5513 5515 5526 5521 5512 5519 5517 5507 5506 5499 5489 5475 5463 5456 5451 5446 5431
5397 5406 5407 5405 5409 5410 5425 5437 5443 5459 5471 5464 5473 5481 5491 5482 5493 5490 5484 5488 5488 5513 5504 5515 5515 5500 5501 5503 5495 5499 5498 5496 5494 5493 5490 5486 5480 5469 5457 5446 5437 5429 5412 5408
5418 5419 5416 5425 5415 5435 5444 5452 5460 5462 5457 5465 5470 5478 5476 5479 5483 5476 5476 5490 5492 5482 5503 5502 5485 5486 5489 5492 5484 5478 5481 5481 5477 5472 5467 5460 5451 5442 5436 5428 5417 5404 5394 5392
5415 5426 5423 5414 5415 5427 5433 5441 5448 5446 5453 5460 5466 5472 5476 5464 5472 5467 5488 5473 5479 5481 5481 5475 5465 5463 5459 5461 5462 5462 5458 5457 5455 5447 5442 5436 5433 5421 5412 5404 5397 5388 5381 5372
5421 5425 5423 5420 5422 5427 5431 5434 5442 5442 5447 5453 5464 5467 5470 5466 5466 5463 5467 5474 5467 5458 5452 5447 5448 5448 5447 5445 5443 5442 5440 5437 5432 5425 5418 5409 5404 5397 5388 5380 5374 5368 5360 5348
5419 5414 5418 5419 5427 5427 5430 5435 5442 5444 5448 5454 5461 5461 5464 5460 5456 5450 5439 5454 5431 5427 5427 5430 5431 5431 5430 5429 5428 5426 5423 5418 5411 5403 5396 5388 5382 5376 5365 5356 5350 5342 5332 5321
5408 5402 5397 5404 5412 5407 5410 5416 5427 5437 5450 5453 5449 5427 5421 5429 5424 5407 5399 5396 5401 5397 5411 5414 5415 5417 5416 5412 5409 5405 5401 5395 5388 5381 5374 5367 5358 5352 5346 5337 5326 5319 5307 5297